www.pogodaiklimat.ru

Погода и климат >> Архив погоды >> Австралия >> Западная Австралия >> Холс Крик


ПОГОДА в Холс Крик

  • Прогноз погоды в Холс Крик
  • Монитор погоды в Холс Крик

АРХИВ ПОГОДЫ в Холс Крик

Время (UTC), дата Ветер
(напр.,м/с)
 
Видим.   Явления Облачность Т
(С)
Тd
(С)
f
(%)
Тe
(С)
Тes
(С)
Комфортность P
(гПа)
Po
(гПа)
Тmin
(С)
Tmax
(С)
R
(мм)
R24
(мм)
S
(см)
07 10.06 В 3 н/о н/о +31.4 +5.0 19 +29 +29 жарко 1010.5 963.7
09 10.06 В 2 н/о н/о +27.9 +4.9 23 +27 +27 жарко 1011.5 964.7
10 10.06 штиль 0 н/о н/о +23.4 +5.3 31 +24 +24 комфорт 1012.2 965.4
12 10.06 ЮЗ 2 н/о н/о +20.4 +5.6 38 +22 +22 комфорт 1013.4 966.5
13 10.06 ЮЗ 1 н/о н/о +18.4 +5.3 42 +20 +20 1013.7 966.8 +32.2
15 10.06 штиль 0 н/о н/о +17.0 +5.0 45 +17 +17 1013.7 966.8
16 10.06 З 2 н/о н/о +17.1 +4.8 44 +17 +17 1013.7 966.8
18 10.06 СВ 1 н/о н/о +16.5 +4.5 45 +18 +18 1013.8 966.9
19 10.06 штиль 0 н/о н/о +15.2 +4.9 50 +15 +15 1013.6 966.7
21 10.06 штиль 0 н/о н/о +13.9 +4.5 53 +14 +14 1014.0 967.1
22 10.06 штиль 0 н/о н/о +13.8 +4.9 55 +14 +14 1014.4 967.5
00 11.06 штиль 0 н/о н/о +25.4 +7.1 31 +25 +25 комфорт 1015.6 968.6
01 11.06 С 3 н/о н/о +29.1 +7.1 25 +28 +28 жарко 1015.8 968.8 +13.6
03 11.06 СВ 4 н/о н/о +31.1 +11.0 29 +31 +31 жарко 1014.5 967.6
04 11.06 С 4 н/о н/о +32.2 +10.8 27 +32 +32 жарко 1013.6 966.7
06 11.06 СЗ 5 н/о н/о +33.1 +11.0 26 +33 +33 жарко 1012.1 965.3
07 11.06 СЗ 3 н/о н/о +33.0 +10.4 25 +32 +32 жарко 1012.0 965.2
09 11.06 З 3 н/о н/о +30.2 +9.7 28 +30 +30 жарко 1013.3 966.4
10 11.06 З 3 н/о н/о +27.5 +9.3 32 +28 +28 жарко 1014.0 967.1
12 11.06 З 3 н/о н/о +24.7 +9.4 38 +25 +25 комфорт 1015.4 968.4
13 11.06 З 3 н/о н/о +24.0 +9.6 40 +25 +25 комфорт 1015.6 968.6 +34.2
15 11.06 З 2 н/о н/о +20.3 +9.5 50 +22 +22 комфорт 1015.4 968.4
16 11.06 З 3 н/о н/о +19.9 +9.5 51 +22 +22 комфорт 1015.4 968.4
18 11.06 штиль 0 н/о н/о +18.5 +8.7 53 +19 +19 1015.0 968.0
19 11.06 штиль 0 н/о н/о +17.2 +8.4 56 +17 +17 1015.1 968.1
21 11.06 З 3 н/о н/о +16.4 +10.3 67 +16 +16 1015.8 968.8
22 11.06 ЮЗ 3 н/о н/о +18.1 +11.0 63 +19 +19 1016.5 969.5
00 12.06 Ю 6 н/о н/о +23.9 +11.9 47 +26 +26 жарко 1018.2 971.1
01 12.06 ЮВ 7 н/о н/о +25.9 +11.3 40 +27 +27 жарко 1018.0 970.9 +16.0
03 12.06 ЮВ 6 н/о н/о +28.6 +11.6 35 +29 +29 жарко 1016.4 969.4
04 12.06 ЮВ 4 н/о н/о +29.5 +11.5 33 +30 +30 жарко 1015.2 968.2
06 12.06 Ю 3 н/о н/о +30.7 +11.6 31 +31 +31 жарко 1013.9 967.0
07 12.06 ЮВ 3 н/о н/о +31.0 +11.4 30 +31 +31 жарко 1013.7 966.8
09 12.06 Ю 3 н/о н/о +29.0 +11.1 33 +30 +30 жарко 1014.2 967.3
10 12.06 Ю 3 н/о н/о +27.8 +10.9 35 +29 +29 жарко 1015.0 968.0
12 12.06 Ю 3 н/о н/о +26.4 +10.5 37 +27 +27 жарко 1015.9 968.9
13 12.06 Ю 4 н/о н/о +26.0 +10.6 38 +27 +27 жарко 1015.9 968.9 +31.7
15 12.06 Ю 5 н/о н/о +24.2 +9.0 38 +25 +25 комфорт 1015.7 968.7
16 12.06 ЮВ 4 н/о н/о +23.4 +8.3 38 +25 +25 комфорт 1015.5 968.5
18 12.06 ЮВ 3 н/о н/о +22.2 +6.8 37 +23 +23 комфорт 1015.0 968.0
19 12.06 В 3 н/о н/о +20.8 +7.1 41 +22 +22 комфорт 1014.9 967.9
21 12.06 ЮВ 2 н/о н/о +20.0 +6.4 41 +21 +21 комфорт 1015.4 968.4
22 12.06 ЮВ 3 н/о н/о +20.5 +5.3 37 +22 +22 комфорт 1016.1 969.1
00 13.06 ЮВ 5 н/о н/о +24.0 +5.4 30 +24 +24 комфорт 1016.9 969.8
01 13.06 В 5 н/о н/о +26.2 +6.3 28 +26 +26 жарко 1016.7 969.7 +19.3
03 13.06 В 5 н/о н/о +29.4 +8.5 27 +29 +29 жарко 1015.7 968.7
04 13.06 В 5 н/о н/о +31.0 +9.8 27 +31 +31 жарко 1014.2 967.3
06 13.06 ЮВ 2 н/о н/о +32.4 +11.0 27 +32 +32 жарко 1012.6 965.7
07 13.06 Ю 3 н/о н/о +32.0 +11.2 28 +32 +32 жарко 1012.3 965.5
09 13.06 ЮВ 2 н/о н/о +30.3 +10.8 30 +30 +30 жарко 1013.2 966.3
10 13.06 Ю 2 н/о н/о +27.1 +10.8 36 +28 +28 жарко 1013.9 967.0
12 13.06 Ю 4 н/о н/о +28.0 +11.1 35 +29 +29 жарко 1015.1 968.1
13 13.06 Ю 5 н/о н/о +27.6 +10.8 35 +28 +28 жарко 1015.2 968.2 +32.9
15 13.06 Ю 5 н/о н/о +25.8 +9.6 36 +26 +26 жарко 1015.1 968.1
16 13.06 Ю 4 н/о н/о +25.3 +9.2 36 +26 +26 жарко 1015.1 968.1
18 13.06 ЮВ 3 н/о н/о +23.7 +8.6 38 +24 +24 комфорт 1014.5 967.6
19 13.06 ЮВ 3 н/о н/о +22.9 +7.8 38 +24 +24 комфорт 1014.4 967.5
21 13.06 ЮВ 3 н/о н/о +21.3 +7.2 40 +22 +22 комфорт 1014.7 967.7
22 13.06 СВ 2 н/о н/о +20.8 +7.8 43 +23 +23 комфорт 1015.0 968.0
00 14.06 ЮВ 5 н/о н/о +24.6 +6.4 31 +25 +25 комфорт 1016.1 969.1
01 14.06 В 6 н/о н/о +26.6 +6.1 27 +26 +26 жарко 1016.0 969.0 +19.7
03 14.06 В 4 н/о н/о +30.0 +9.5 28 +30 +30 жарко 1014.5 967.6
04 14.06 В 4 н/о н/о +32.1 +10.8 27 +32 +32 жарко 1013.3 966.4
06 14.06 С 2 н/о н/о +32.8 +10.2 25 +32 +32 жарко 1011.6 964.8
07 14.06 Ю 3 н/о н/о +32.7 +9.5 24 +32 +32 жарко 1011.2 964.4
09 14.06 Ю 2 н/о н/о +30.8 +9.6 27 +30 +30 жарко 1012.0 965.2
10 14.06 Ю 1 н/о н/о +26.4 +9.3 34 +27 +27 жарко 1012.7 965.8
12 14.06 Ю 3 н/о н/о +25.6 +9.8 37 +26 +26 жарко 1013.8 966.9
13 14.06 Ю 3 н/о н/о +27.3 +9.6 33 +28 +28 жарко 1013.9 967.0 +33.8
15 14.06 Ю 2 н/о н/о +24.9 +10.4 40 +26 +26 жарко 1014.0 967.1
16 14.06 ЮВ 2 н/о н/о +24.5 +9.6 39 +25 +25 комфорт 1013.6 966.7
18 14.06 Ю 1 н/о н/о +22.4 +9.6 44 +24 +24 комфорт 1013.2 966.3
19 14.06 штиль 0 н/о н/о +19.8 +9.1 50 +21 +21 комфорт 1013.0 966.1
21 14.06 В 2 н/о н/о +20.8 +10.0 50 +23 +23 комфорт 1013.8 966.9
22 14.06 В 3 н/о н/о +20.4 +10.2 52 +22 +22 комфорт 1014.3 967.4
00 15.06 В 4 н/о н/о +26.6 +11.1 38 +28 +28 жарко 1015.5 968.5
01 15.06 СВ 7 н/о н/о +29.3 +10.9 32 +30 +30 жарко 1015.6 968.6 +19.1
03 15.06 С 5 н/о н/о +30.4 +10.9 30 +31 +31 жарко 1014.5 967.6
04 15.06 С 5 н/о н/о +31.8 +11.0 28 +32 +32 жарко 1013.4 966.5
06 15.06 СЗ 3 н/о н/о +31.7 +9.8 26 +31 +31 жарко 1012.2 965.4
07 15.06 В 3 н/о 3/0
[]
+32.4 +10.4 26 +32 +35 жарко 1011.7 964.9
09 15.06 штиль 0 н/о н/о +29.5 +9.1 28 +29 +29 жарко 1012.3 965.5
10 15.06 ЮЗ 2 н/о н/о +26.3 +10.0 36 +27 +27 жарко 1012.8 965.9
12 15.06 ЮЗ 2 н/о н/о +25.3 +10.0 38 +26 +26 жарко 1014.2 967.3
13 15.06 З 3 н/о 3/0
[]
+24.9 +10.4 40 +26 +26 жарко 1014.4 967.5 +33.2
15 15.06 Ю 6 н/о н/о +25.0 +5.2 28 +25 +25 комфорт 1014.5 967.6
16 15.06 Ю 7 н/о н/о +24.5 +0.1 20 +23 +23 комфорт 1014.7 967.7
18 15.06 ЮВ 6 н/о н/о +22.8 -1.3 20 +22 +22 комфорт 1014.4 967.5
19 15.06 ЮВ 6 н/о н/о +22.5 -0.9 21 +22 +22 комфорт 1014.3 967.4
21 15.06 ЮВ 4 н/о н/о +21.5 -1.1 22 +21 +21 комфорт 1014.4 967.5
22 15.06 ЮВ 4 н/о н/о +20.8 -1.1 23 +21 +21 комфорт 1015.0 968.0
00 16.06 ЮВ 4 н/о н/о +23.1 +0.2 22 +22 +22 комфорт 1016.4 969.4
01 16.06 В 4 н/о н/о +25.5 +2.9 23 +24 +24 комфорт 1016.4 969.4 +20.7
03 16.06 СВ 3 н/о н/о +28.3 +5.8 24 +27 +27 жарко 1015.2 968.2
04 16.06 СВ 3 н/о н/о +30.3 +6.9 23 +29 +29 жарко 1014.1 967.2
06 16.06 СВ 3 н/о н/о +32.6 +9.4 24 +32 +32 жарко 1012.6 965.7
07 16.06 ЮЗ 4 н/о н/о +32.1 +7.7 22 +31 +31 жарко 1012.1 965.3
09 16.06 Ю 2 н/о н/о +29.8 +7.7 25 +29 +29 жарко 1012.9 966.0
10 16.06 З 3 н/о 3/0
[]
+26.9 +7.9 30 +27 +27 жарко 1013.4 966.5
12 16.06 ЮВ 1 н/о н/о +24.2 +6.9 33 +24 +24 комфорт 1014.7 967.7
13 16.06 З 3 н/о н/о +24.7 +7.8 34 +25 +25 комфорт 1014.8 967.8 +33.0
15 16.06 штиль 0 н/о н/о +21.1 +7.7 42 +22 +22 комфорт 1014.4 967.5
16 16.06 ЮЗ 2 н/о н/о +21.2 +8.8 45 +22 +22 комфорт 1014.3 967.4
18 16.06 ЮЗ 2 н/о н/о +18.3 +8.3 52 +19 +19 1014.1 967.2
19 16.06 штиль 0 н/о н/о +16.9 +8.3 57 +17 +17 1014.0 967.1
21 16.06 В 3 н/о н/о +20.0 +8.0 46 +21 +21 комфорт 1014.9 967.9
22 16.06 В 3 н/о н/о +18.7 +7.8 49 +19 +19 1015.5 968.5
00 17.06 В 6 н/о н/о +25.8 +8.3 33 +26 +26 жарко 1017.1 970.0
01 17.06 СВ 6 н/о н/о +27.8 +8.6 30 +28 +28 жарко 1017.1 970.0 +17.0
03 17.06 СВ 7 н/о н/о +30.0 +9.0 27 +29 +29 жарко 1015.7 968.7
04 17.06 С 6 н/о н/о +30.1 +9.1 27 +30 +30 жарко 1014.5 967.6
06 17.06 СВ 3 н/о н/о +31.1 +7.5 23 +30 +30 жарко 1013.1 966.2
07 17.06 Ю 2 н/о н/о +31.1 +7.5 23 +30 +30 жарко 1012.8 965.9

 

Местоположение метеостанции Холс Крик (Западная Австралия, Австралия): широта -18.23 долгота 127.66 высота над уровнем моря 424 м.

В архиве по умолчанию представлена погода в Холс Крик за последнюю неделю. Архивные данные за месяц целиком и за предыдущие месяцы, начиная с января 2011 года, Вы можете получить, выбрав интересующий диапазон дат из раскрывающегося списка и нажав кнопку "Ввод!".


*Определитесь, кто Вы:
робот инопланетянин человек

Внимание! Время в таблицах - всемирное. Для получения местного времени необходимо прибавить поправку, которая равна 8 ч.

Смотрите также архив погоды в соседних городах и на ближайших метеорологических станциях:

Погода в Аэропорту Аргайл (Западная Австралия, Австралия) (197 км)
Погода в Фицрой-Кроссинге (Западная Австралия, Австралия) (222 км)
Погода в Кунунарре (Западная Австралия, Австралия) (294 км)
Погода в Уиндеме (Западная Австралия, Австралия) (308 км)
Погода в Ладжаману (Северная территория, Австралия) (314 км)
Погода в Раббит Флат (Северная территория, Австралия) (329 км)
Погода в Виктория-Ривер (Северная территория, Австралия) (411 км)
Погода на Базе ВВС Curtin (Западная Австралия, Австралия) (413 км)
Погода в Дерби (Северная территория, Австралия) (435 км)
Погода в Калумбуру (Западная Австралия, Австралия) (450 км)

Пояснения к столбцам:

Ветер - указаны скорость ветра в м/с - средняя за 10 мин, порывы в срок и между сроками (в фигурных скобках) и направление, откуда дует ветер: С - северный, СВ - северо-восточный, В - восточный, ЮВ - юго-восточный, Ю - южный, ЮЗ - юго-западный, З - западный, СЗ - северо-западный.
Видимость - горизонтальная дальность видимости в метрах или километрах. При видимости от 1 до 10 км при отсутствии осадков обычно наблюдается дымка, при ухудшении видимости до 1 км и менее - туман. В сухую погоду видимость может ухудшаться дымом, пылью или мглою.
Явления - указаны атмосферные явления, наблюдавшиеся в срок или в последний час перед сроком; фигурными скобками обозначены явления, наблюдавшиеся между сроками (за 1-3 часа до срока); квадратными скобками обозначены град или гололедные отложения с указанием их диаметра в мм.
Облачность - указаны через наклонную черту общая и нижняя облачность в баллах и высота нижней границы облаков в метрах; квадратными скобками обозначены формы облаков: Ci - перистые, Cs - перисто-слоистые, Cc - перисто-кучевые, Ac - высококучевые, As - высокослоистые, Sc - слоисто-кучевые, Ns - слоисто-дождевые, Cu - кучевые, Cb - кучево-дождевые. Подробнее классификацию облаков см. в Атласе облаков (PDF).
T - Температура воздуха - температура, измеренная на высоте 2 м над землей.
Td - Температура точки росы - температура, при понижении до которой содержащийся в воздухе водяной пар достигнет насыщения.
f - Относительная влажность воздуха - влажноcть воздуха, измеренная на высоте 2 м над землей.
Te - Эффективная температура - температура, которую ощущает одетый по сезону человек в тени. Характеристика душности погоды. При расчете учитывается влияние влажности воздуха и скорости ветра на теплоощущения человека.
Tes - Эффективная температура на солнце - температура, которую ощущает человек, с поправкой на солнечный нагрев. Характеристика знойности погоды. Зависит от высоты солнца над горизонтом, облачности и скорости ветра. Ночью, в пасмурную погоду, а также при ветре 12 м/с и более поправка равна нулю.
P - Атмосферное давление - приведенное к уровню моря атмосферное давление.
Po - Атмосферное давление - измеренное на уровне метеостанции атмосферное давление.
Tmin - Минимальная температура - минимум температуры воздуха на высоте 2 м над землей.
Tmax - Максимальная температура - максимум температуры воздуха на высоте 2 м над землей.
R - Количество осадков - Количество выпавших осадков за период времени, мм. При наведении курсора мыши на число - период времени, за который выпало указанное количество осадков.
R24 - Количество осадков - Количество выпавших осадков за 24 часа, мм.
S - Снежный покров - Высота снежного покрова, см. При наведении курсора мыши на число - состояние снежного покрова и степень покрытия местности в баллах.